Location: Recife
(8.0585°S, 34.8848°W)
Time: 12:19:15
(UTC-03:00)

Tiros 1 - Pass Details

Date: 21 April 2026
Orbit: 618 x 648 km, 48.4° (Epoch: 11 May)

Event Time Altitude Azimuth Distance (km) Brightness Sun altitude
Rises 18:07:02 0° 296° (WNW) 2,942 12.2 -13.5°
Reaches altitude 10° 18:09:44 10° 282° (WNW) 2,038 11.2 -14.2°
Maximum altitude 18:13:31 24° 228° (SW) 1,346 9.2 -15.1°
Drops below altitude 10° 18:17:19 10° 174° (S) 2,049 9.6 -16.0°
Enters shadow 18:19:02 - 164° (SSE) 2,608 10.0 -16.5°
Sets 18:20:03 0° 160° (SSE) 2,961 - -16.7°
